CAS-2T
1 41845U 16066E 17138.54026617 .00000087 00000-0 24384-4 0 9992
2 41845 098.7776 153.4596 0366389 336.4366 022.0403 14.37745796027235
Pegasus-1
1 41846U 16066F 17138.57898514 .00000333 00000-0 62045-4 0 9999
2 41846 098.7813 153.3117 0369216 337.4985 021.0353 14.36992172027229
STARS-C
1 41895U 98067KR 17138.37696794 .00016386 00000-0 20348-3 0 9992
2 41895 051.6380 183.7615 0002949 211.7206 148.3610 15.60149181023336
Tancredo 1
1 41931U 98067KT 17138.55757979 .00037689 00000-0 38355-3 0 9992
2 41931 051.6366 181.2054 0003381 139.5056 220.6191 15.64757125018959
ITF-2
1 41932U 98067KU 17138.39756525 .00010566 00000-0 14235-3 0 9997
2 41932 051.6400 184.6561 0004971 149.5741 210.5541 15.58432969018896
AOBA-V3LOX3
1 41935U 98067KX 17138.52130298 .00012572 00000-0 16666-3 0 9997
2 41935 051.6398 183.9810 0004217 153.0899 207.0313 15.58665556019014
OSNSAT
1 41939U 98067KZ 17138.39713113 .00022723 00000-0 26187-3 0 9997
2 41939 051.6381 183.1424 0004878 149.8468 210.2808 15.61850162018276
EO-88
1 42017U 17008BX 17138.53846658 .00001838 00000-0 81570-4 0 9990
2 42017 097.4976 200.0500 0005701 339.4636 020.6370 15.22849848013971
QB50-0
1 42700U 98067LH 17138.47901638 .00013963 00000-0 21154-3 0 9999
2 42700 051.6410 186.3760 0005413 219.2946 289.0576 15.54924329000325
QB50-1
1 42701U 98067LJ 17137.61703473 .00015104 00000-0 22834-3 0 9997
2 42701 051.6398 190.6800 0006000 211.6364 148.4267 15.54904485000176
QB50-2
1 42702U 98067LK 17137.38050131 .00001312 00000-0 26529-4 0 9990
2 42702 051.6394 191.8569 0001836 109.3634 004.7478 15.54700923000060
QB50-3
1 42703U 98067LL 17138.27617262 .00016805 00000-0 25438-3 0 9994
2 42703 051.6423 187.4014 0003608 161.8336 288.9768 15.54787578000194
QB50-4
1 42704U 98067LM 17138.47792291 .00007539 00000-0 11828-3 0 9995
2 42704 051.6330 186.4169 0001700 222.4698 278.2142 15.54761748000232
QB50-5
1 42705U 98067LN 17137.37875399 -.02459689 00000-0 -42501-1 0 9996
2 42705 051.6494 191.8702 0010788 197.9671 267.2667 15.54096936000128
QB50-6
1 42706U 98067LP 17137.44725628 .00193392 00000-0 27818-2 0 9991
2 42706 051.6328 191.5488 0000743 155.6461 331.0837 15.54868073000062
QB50-7
1 42707U 98067LQ 17138.20956539 .00023865 00000-0 35363-3 0 9996
2 42707 051.6431 187.6969 0004204 215.5498 222.0175 15.55116544000165
QB50-8
1 42708U 98067LR 17138.14012523 .00013042 00000-0 19823-3 0 9995
2 42708 051.6473 188.0621 0001354 089.3798 318.4101 15.54910336000131
/EX
1
0
SB KEPS @ AMSAT $ORB17131.N
2Line Orbital Elements 17131.AMSAT
HR AMSAT ORBITAL ELEMENTS FOR AMATEUR SATELLITES IN NASA FORMAT
FROM WA5QGD FORT WORTH,TX May 11, 2017
BID: ORB17131.N
DECODE 2-LINE ELSETS WITH THE FOLLOWING KEY:
1 AAAAAU 00 0 0 BBBBB.BBBBBBBB .CCCCCCCC 00000-0 00000-0 0 DDDZ
2 AAAAA EEE.EEEE FFF.FFFF GGGGGGG HHH.HHHH III.IIII JJ.JJJJJJJJKKKKKZ
KEY: A-CATALOGNUM B-EPOCHTIME C-DECAY D-ELSETNUM E-INCLINATION F-RAAN
G-ECCENTRICITY H-ARGPERIGEE I-MNANOM J-MNMOTION K-ORBITNUM Z-CHECKSUM
TO ALL RADIO AMATEURS BT
AO-07
1 07530U 74089B 17131.53938664 -.00000049 00000-0 -29413-4 0 9998
2 07530 101.6273 100.9508 0012395 034.9836 078.7926 12.53626859944039
UO-11
1 14781U 84021B 17131.59508517 .00000069 00000-0 14842-4 0 9997
2 14781 097.7009 178.6505 0007561 328.5310 031.5451 14.82890073763926
LO-19
1 20442U 90005G 17131.55291174 -.00000005 00000-0 14347-4 0 9992
2 20442 098.5742 068.4429 0010592 255.0775 104.9236 14.32858350426310
HUBBLE
1 20580U 90037B 17131.57336071 .00000476 00000-0 18370-4 0 9999
2 20580 028.4695 249.4554 0002846 135.1079 331.8030 15.08759380284660
MET-2/21
1 22782U 93055A 17131.51947704 .00000067 00000-0 47322-4 0 9998
2 22782 082.5517 052.6845 0022504 170.3953 312.1832 13.83801558196358
AO-27
1 22825U 93061C 17131.45848341 -.00000009 00000-0 14322-4 0 9994
2 22825 098.8091 096.5951 0009554 079.8983 280.3276 14.29995107231885
IO-26
1 22826U 93061D 17131.49796891 -.00000006 00000-0 15301-4 0 9996
2 22826 098.8033 096.7214 0010047 071.2814 288.9458 14.30323598232084
FO-29
1 24278U 96046B 17131.56212490 .00000001 00000-0 34073-4 0 9992
2 24278 098.5694 019.6854 0351388 072.3458 291.5724 13.53076250023676
NOAA-15
1 25338U 98030A 17131.58312456 .00000032 00000-0 32285-4 0 9997
2 25338 098.7829 142.4190 0009694 317.8500 042.1933 14.25791044987529
GO-32
1 25397U 98043D 17131.43677516 -.00000022 00000-0 94535-5 0 9998
2 25397 098.6077 074.5534 0002420 097.4543 262.6911 14.23621255978342
ISS
1 25544U 98067A 17131.59792321 .00002092 00000-0 39024-4 0 9996
2 25544 051.6432 220.6807 0005403 145.8482 354.3636 15.54003729056065
NO-44
1 26931U 01043C 17131.33064249 -.00000020 00000-0 24251-4 0 9994
2 26931 067.0506 186.2915 0008010 270.9632 089.0551 14.30458988815009
SO-50
1 27607U 02058C 17131.60246948 -.00000011 00000-0 18843-4 0 9990
2 27607 064.5558 237.3559 0031009 115.3422 245.0897 14.75319966773588
CO-55
1 27844U 03031E 17131.55769620 .00000047 00000-0 40803-4 0 9995
2 27844 098.6902 141.0965 0011016 093.4705 266.7733 14.22034509719072
CO-57
1 27848U 03031J 17131.54754537 .00000031 00000-0 34124-4 0 9991
2 27848 098.6995 141.3297 0010898 101.7714 258.4687 14.21649393718964
RS-22
1 27939U 03042A 17131.60652823 .00000092 00000-0 24923-4 0 9999
2 27939 097.9336 277.5379 0012565 348.6227 075.8500 14.66557754727810
NOAA-18
1 28654U 05018A 17131.57001871 .00000014 00000-0 32726-4 0 9990
2 28654 099.1847 152.8852 0014578 170.2579 189.8877 14.12336240616997
CO-58
1 28895U 05043F 17131.18235487 .00000136 00000-0 35069-4 0 9992
2 28895 097.8608 295.1890 0015432 259.6651 100.2812 14.63385321615074
Falconsat-3
1 30776U 07006E 17130.89195352 .00002084 00000-0 67382-4 0 9994
2 30776 035.4365 303.1863 0003596 338.1176 021.9396 15.32061098562533
CO-65
1 32785U 08021C 17131.45618350 .00000222 00000-0 29969-4 0 9996
2 32785 097.5691 157.4013 0011608 292.8746 067.1245 14.87865874489362
AAUSAT2
1 32788U 08021F 17131.59415643 .00000560 00000-0 57912-4 0 9998
2 32788 097.5621 168.9524 0010411 249.9229 110.0871 14.93825127490114
DO-64
1 32789U 08021G 17131.38596791 .00001556 00000-0 11461-3 0 9994
2 32789 097.5616 190.3893 0012034 221.5419 138.4894 15.04745198491333
CO-66
1 32791U 08021J 17131.31340749 .00000301 00000-0 36504-4 0 9993
2 32791 097.5663 161.5149 0011843 276.5189 083.4681 14.90188895489578
RS-30
1 32953U 08025A 17131.58225872 -.00000002 00000-0 -85375-4 0 9995
2 32953 082.5026 262.4104 0018601 008.6225 351.5171 12.43076336406878
PRISM
1 33493U 09002B 17131.56830116 .00001181 00000-0 11190-3 0 9992
2 33493 098.1747 012.4478 0014182 198.7470 161.3219 14.95624939450305
NOAA-19
1 33591U 09005A 17131.56787793 .00000068 00000-0 62076-4 0 9999
2 33591 099.0896 097.8793 0014410 019.4517 340.7201 14.12178308425221
TISAT-1
1 36799U 10035E 17131.28508875 .00000475 00000-0 54804-4 0 9990
2 36799 098.0565 253.2766 0013877 089.3229 270.9578 14.90354511370088
JUGNU
1 37839U 11058B 17130.85993514 .00000318 00000-0 27868-4 0 9998
2 37839 019.9621 316.8123 0018947 131.7200 359.6533 14.12581799288309
SRMSAT
1 37841U 11058D 17130.86239032 .00000306 00000-0 23306-4 0 9990
2 37841 019.9734 357.7106 0011818 031.8049 063.5642 14.10573245288007
AO-71
1 37854U 11061E 17131.46328918 .00001532 00000-0 89772-4 0 9998
2 37854 101.7086 346.4096 0167962 183.6318 176.3687 15.03943851300960
HRBE
1 37855U 11061F 17131.18146506 .00001330 00000-0 77709-4 0 9992
2 37855 101.7219 343.8124 0181138 190.7309 169.0014 15.02902161300761
